This demonstration page uses our WeatherBlox Daily Observations layout. Learn more.

Left ArrowRight Arrow

Hourly Observations for December 11, 2019

Temp ( °F °C ) Dew Point ( °F °C ) Humidity (%) Winds ( mph kmh ) Pressure ( in mb ) Visibility ( mi km ) Precip ( " mm )
12:52 am 00:52 Mostly Cloudy 23 -5 12 -11.1 63 63 SSW 8 13 30.24 1024 10 16 0.00 0.00
1:52 am 01:52 Mostly Cloudy 28 -2.2 16 -8.9 60 60 SW 14 22 30.24 1024 10 16 0.00 0.00
2:52 am 02:52 Partly Cloudy 30 -1.1 17 -8.3 58 58 WSW 17 28 30.24 1024 10 16 0.00 0.00
3:52 am 03:52 Mostly Clear 27 -2.8 17 -8.3 66 66 W 5 7 30.29 1026 10 16 0.00 0.00
4:52 am 04:52 Mostly Clear 27 -2.8 18 -7.8 69 69 W 3 6 30.30 1026 10 16 0.00 0.00
5:52 am 05:52 Mostly Clear 24 -4.4 18 -7.8 77 77 WNW 6 9 30.32 1027 10 16 0.00 0.00
6:37 am 06:37 Mostly Cloudy 25 -3.9 19 -7.2 78 78 N 14 22 30.38 1029 10 16 0.00 0.00
6:52 am 06:52 Mostly Cloudy 24 -4.4 18 -7.8 77 77 NNW 16 26 30.37 1028 10 16 0.00 0.00
7:02 am 07:02 Partly Cloudy 23 -5 17 -8.3 78 78 NNW 10 17 30.40 1030 10 16 0.00 0.00
7:52 am 07:52 Mostly Sunny 22 -5.6 17 -8.3 82 82 N 10 17 30.41 1030 10 16 0.00 0.00
8:52 am 08:52 Mostly Sunny 22 -5.6 16 -8.9 78 78 N 13 20 30.43 1031 10 16 0.00 0.00
9:52 am 09:52 Mostly Sunny 23 -5 15 -9.4 72 72 NE 13 20 30.46 1032 10 16 0.00 0.00
10:52 am 10:52 Mostly Sunny 25 -3.9 16 -8.9 69 69 E 9 15 30.47 1032 10 16 0.00 0.00
11:52 am 11:52 Mostly Sunny 26 -3.3 15 -9.4 63 63 E 8 13 30.45 1031 10 16 0.00 0.00
12:52 pm 12:52 Mostly Sunny 28 -2.2 16 -8.9 60 60 E 8 13 30.42 1030 10 16 0.00 0.00
1:52 pm 13:52 Partly Cloudy 30 -1.1 16 -8.9 56 56 E 12 19 30.39 1029 10 16 0.00 0.00
2:52 pm 14:52 Mostly Cloudy 30 -1.1 16 -8.9 56 56 ESE 10 17 30.37 1029 10 16 0.00 0.00
3:52 pm 15:52 Mostly Cloudy 31 -0.6 17 -8.3 56 56 ESE 13 20 30.36 1028 10 16 0.00 0.00
4:52 pm 16:52 Cloudy 30 -1.1 18 -7.8 61 61 ESE 10 17 30.32 1027 10 16 0.00 0.00
5:52 pm 17:52 Cloudy 29 -1.7 18 -7.8 63 63 ESE 10 17 30.30 1026 10 16 0.00 0.00
6:52 pm 18:52 Mostly Cloudy 28 -2.2 18 -7.8 66 66 ESE 10 17 30.27 1025 10 16 0.00 0.00
7:52 pm 19:52 Cloudy 28 -2.2 19 -7.2 69 69 SE 13 20 30.25 1024 10 16 0.00 0.00
8:52 pm 20:52 Mostly Cloudy 29 -1.7 20 -6.7 69 69 SSE 15 24 30.21 1023 10 16 0.00 0.00
9:52 pm 21:52 Cloudy 29 -1.7 21 -6.1 72 72 SE 16 26 30.17 1022 10 16 0.00 0.00
10:52 pm 22:52 Mostly Cloudy 30 -1.1 22 -5.6 72 72 SSE 14 22 30.15 1021 10 16 0.00 0.00
11:52 pm 23:52 Cloudy 30 -1.1 23 -5 75 75 SSE 8 13 30.11 1020 10 16 0.00 0.00

Powered by AerisWeather